STARLINK-35582 (66537 NORAD) Tracking and Keplerian Element Data

This shows tracking and keplerian element data for the satellite.

Feedback or suggestion? Click here.




ElementValue
Catalog66537
NameSTARLINK-35582
Epoch Orbit609
Epoch Day354.25003472
Epoch Year2025
RAAN10.1518
Inclination43.0004
Eccentricity0.0001658
Argument of Perigee284.855
Mean Anonmoly44.4342
Mean Motion15.40683219
Decay Rate0.00022125
L11 66537U 25265X 25354.25003472 .00022125 00000+0 53567-3 0 9999
L22 66537 43.0004 10.1518 0001658 284.8550 44.4342 15.40683219 6093



Live tracking and technical data element details for STARLINK-35582 (NORAD 66537). STARLINK-35582 can be tracked NOW for your location showing map with azimuth and elevation plus other details from your city location.







IsCatalogInMostPopularTable: catalog: 66537, numindb: 4
Update: records affected: 1



GetName: 66537 STARLINK-35582

Hit Count: updated at: Sun, 08 Feb 2026 16:42:59 GMT